Regional Weather Roundup
Issued by NWS Columbia, SC

Home | Current Version | Previous Version | Text Only | Print | Product List | Glossary On
Versions: 1 2 3 4 5 6 7 8 9 10 11 12 13 14 15 16 17 18 19 20 21 22 23 24 25 26 27 28 29 30 31 32 33 34 35 36 37 38 39 40 41 42 43 44 45 46 47 48 49 50
000
ASUS42 KCAE 280810
RWRCAE
REGIONAL WEATHER ROUNDUP
NATIONAL WEATHER SERVICE COLUMBIA SC
300 AM EST SUN DEC 28 2014

NOTE: "FAIR" INDICATES FEW OR NO CLOUDS BELOW 12,000 FEET WITH NO
SIGNIFICANT WEATHER AND/OR OBSTRUCTIONS TO VISIBILITY.

NOT ALL STATIONS ARE QUALITY CONTROLLED BY THE NATIONAL
WEATHER SERVICE. USE DATA WITH CAUTION...ESPECIALLY
DEWPOINT OBSERVATIONS.

SCZ001>056-GAZ040-063>065-077-280900-
...UPSTATE SOUTH CAROLINA...

CITY           SKY/WX    TMP DP  RH WIND       PRES   REMARKS
ANDERSON       LGT RAIN  50  47  89 W3        30.15F
LIBERTY        DRIZZLE   49  32  52 MISG      30.14F
SPARTANBURG    LGT RAIN  54  41  62 SW5       30.14S
CLEMSON        LGT RAIN  53  42  66 W6        30.16S
GREENVILLE     CLOUDY    52  42  69 W5        30.15S
GREENWOOD      CLOUDY    51  47  86 CALM      30.16S
GREER          CLOUDY    50  44  80 SW3       30.13S
ROCK HILL      CLOUDY    50  41  71 SW3       30.15R
CHESTER        CLOUDY    52  41  66 CALM      30.15S
LAURENS        CLOUDY    50  46  87 CALM      30.14F


...CENTRAL SOUTH CAROLINA...

CITY           SKY/WX    TMP DP  RH WIND       PRES   REMARKS
COLUMBIA APT   LGT RAIN  52  49  89 CALM      30.14F
COLUMBIA OWENS CLOUDY    53  48  83 CALM      30.17S
DARLINGTON     CLOUDY    52  48  87 SW3       30.16F
FLORENCE       CLOUDY    52  48  86 CALM      30.15F
MCENTIRE ANGB  CLOUDY    51  51  99 CALM      30.16F
ORANGEBURG     CLOUDY    53  51  93 SE3       30.14F
SUMTER SHAW    CLOUDY    52  50  95 SW3       30.13F
NEWBERRY       CLOUDY    48 N/A N/A CALM      30.18S
AIKEN          DRIZZLE   54  54 100 CALM      30.17F
BARNWELL       PTSUNNY   54  54 100 CALM      30.15S
MANNING        FAIR      52 N/A N/A CALM      30.14F
CAMDEN         FAIR      48  46  93 CALM      30.15F
LANCASTER      PTSUNNY   48  48 100 CALM      30.15R
WINNSBORO      DRIZZLE   52  48  87 SW6       30.15R


...EASTERN AND COASTAL SOUTH CAROLINA...

CITY           SKY/WX    TMP DP  RH WIND       PRES   REMARKS
MYRTLE BEACH   CLOUDY    54  48  82 CALM      30.17F
N MYRTLE BCH   CLOUDY    51  48  89 CALM      30.16F
CONWAY         CLOUDY    50  50 100 CALM      30.16F
MARION         FAIR      52  46  82 CALM      30.15F
HARTSVILLE     FAIR      54  46  76 CALM      30.14F
FLORENCE       CLOUDY    52  48  86 CALM      30.15F
DARLINGTON     CLOUDY    52  48  87 SW3       30.16F
CHARLESTON APT MOCLDY    53  50  89 CALM      30.16F
MOUNT PLEASANT PTSUNNY   52  52 100 CALM      30.17F
WALTERBORO     CLOUDY    54 N/A N/A CALM      30.15F
BEAUFORT       CLOUDY    54  51  90 CALM      30.15F


...EASTERN GEORGIA...

CITY           SKY/WX    TMP DP  RH WIND       PRES   REMARKS
AUGUSTA BUSH F LGT RAIN  52  51  97 N7        30.14F
AUGUSTA DANIEL LGT RAIN  55  53  93 CALM      30.15S
THOMSON        CLOUDY    54  54 100 CALM      30.19F
WASHINGTON     RAIN      54  54 100 CALM      30.15S
CLAXTON        FAIR      54  52  94 CALM      30.15F
SYLVANIA       CLOUDY    56  54  93 CALM      30.14F
STATESBORO     MOCLDY    56  56 100 S3        30.13F
SAVANNAH       PTCLDY    52  48  86 CALM      30.15F


...SOUTHERN NORTH CAROLINA...

CITY           SKY/WX    TMP DP  RH WIND       PRES   REMARKS
CHARLOTTE      LGT RAIN  50  40  68 S5        30.14S
MONROE         CLOUDY    52  42  69 SW5       30.13F
WADESBORO      DRIZZLE   48  45  89 CALM      30.13F
ROCKINGHAM     CLOUDY    51  45  80 CALM      30.14F
RUTHERFORDTON  CLOUDY    52  40  62 S9        30.12S
ASHEVILLE      MOCLDY    51  38  60 S5        30.11S

$$


USA.gov is the U.S. government's official web portal to all federal, state and local government web resources and services.